Wetbulb
52.55 49.20 48.80 49.39 49.99 49.26 47.87 46.90 46.37 48.97 51.73 50.58 50.60 50.84 52.72 55.03 55.56 55.31 56.08 56.83 57.41 58.29 60.02 60.76 61.81 63.15 62.45 64.00 66.65 71.05 71.17 75.45 75.60 75.08 74.15 73.42 72.87 73.03 72.60 72.20 74.53 74.57 73.02 73.18
50.95 48.51 51.22 50.41 49.88 48.75 48.28 47.05 47.21 50.13 51.93 51.10 50.81 50.79 53.89 54.93 55.07 55.64 55.78 55.90 56.41 57.16 57.81 59.48 61.97 62.72 64.61 64.42 66.11 69.55 73.68 75.75 75.65 74.88 74.75 75.06 73.44 73.66 72.79 72.69 73.94 74.25 72.72 73.59
47.41 49.63 50.70 48.79 48.40 47.73 48.03 46.78 47.33 46.90 50.08 52.32 51.72 49.36 51.15 54.05 55.34 55.03 55.03 55.43 56.31 56.90 57.45 57.99 59.48 62.59 64.02 64.12 65.66 66.69 74.06 74.77 75.78 75.92 75.18 75.24 73.22 72.41 72.50 72.35 71.29 72.93 72.92 72.71
49.00 51.04 48.61 48.21 47.29 48.72 44.82 49.87 48.79 48.11 47.79 44.45 51.78 42.84 49.66 52.27 52.41 53.48 54.92 55.52 56.35 57.78 58.90 59.82 58.40 60.04 63.11 62.81 65.97 65.89 73.04 73.89 75.25 76.05 74.65 73.73 71.25 69.11 71.68 71.62 71.92 72.20 73.22 72.47
47.87 48.38 47.22 46.53 47.64 49.15 46.85 50.47 49.25 49.47 48.42 48.33 48.38 45.57 48.46 51.64 49.90 50.99 53.77 54.67 56.46 57.57 58.29 58.50 59.29 59.22 60.36 61.70 63.86 66.36 71.70 73.52 74.53 74.75 75.45 74.17 71.07 71.71 72.89 72.24 74.37 72.87 73.81 73.46
49.03 52.60 49.09 48.91 49.80 50.51 51.51 49.61 49.67 49.54 48.52 42.34 45.71 44.41 44.52 45.59 47.37 49.68 53.15 54.97 56.61 57.49 57.91 58.67 59.46 60.19 59.87 60.33 61.25 65.41 70.55 73.18 74.28 74.02 74.35 74.50 72.32 71.46 70.70 72.46 72.06 71.00 70.75 71.46
48.53 48.64 49.82 49.99 47.62 50.51 49.90 47.47 40.16 39.17 40.24 39.63 46.44 44.27 43.24 49.27 50.16 49.79 50.31 52.54 55.91 57.65 57.81 57.09 58.62 57.95 59.66 59.00 59.58 62.49 70.09 71.16 72.94 73.10 73.56 74.04 73.74 74.76 74.38 73.22 71.94 71.74 70.44 70.40
42.84 42.02 47.28 50.46 48.18 46.16 47.51 46.50 37.35 29.66 34.11 37.66 45.63 40.46 45.30 50.65 52.83 52.11 52.74 51.79 55.64 57.31 58.19 56.57 57.36 56.25 57.81 58.51 60.04 59.93 66.89 70.04 71.56 72.32 72.78 74.18 74.89 71.77 71.93 73.71 72.55 71.69 71.46 72.47
42.27 42.88 49.51 49.93 50.59 49.80 46.45 43.44 47.31 37.90 40.12 36.70 43.31 45.24 50.96 52.55 51.54 51.22 51.27 51.48 53.99 55.82 57.79 57.05 57.01 56.47 57.45 58.35 61.09 61.81 65.62 67.94 70.34 71.71 72.55 72.96 73.99 73.55 72.63 73.65 75.18 72.39 73.31 73.17
45.57 39.01 47.75 49.15 51.41 50.89 48.61 49.61 41.39 43.73 30.90 31.72 40.08 41.39 43.14 46.41 46.59 49.15 48.39 49.69 53.41 54.89 55.88 49.45 57.51 56.48 57.76 58.62 60.88 63.62 67.48 68.07 69.97 70.30 72.37 72.66 72.52 72.51 74.21 74.68 73.72 73.09 73.69 72.19
47.24 43.68 44.17 48.59 46.35 45.16 44.40 44.74 45.64 43.99 40.16 32.60 33.37 39.14 47.33 47.41 47.54 44.71 45.40 48.77 51.88 53.91 56.14 55.56 57.76 56.60 57.46 58.32 59.03 67.92 68.30 68.22 70.41 68.70 71.47 71.99 70.99 70.97 73.26 73.03 73.63 73.33 71.36 67.34
48.41 45.38 40.17 44.17 49.84 49.95 48.15 45.11 46.02 38.01 37.29 38.87 38.49 37.34 50.27 49.74 47.95 46.94 46.40 47.69 50.36 53.61 56.37 58.93 55.90 56.39 56.96 58.46 61.78 66.71 69.04 68.91 69.63 67.90 70.49 70.91 72.60 71.65 71.02 69.57 69.93 66.41 66.22 64.27
46.46 43.79 37.75 42.43 47.09 48.41 45.74 47.14 46.67 46.19 45.45 40.30 34.07 38.84 50.29 49.75 47.21 47.54 45.72 46.64 48.29 52.40 58.19 61.78 55.97 56.25 57.48 59.43 64.40 66.25 68.15 68.94 69.63 67.24 70.52 69.19 65.87 64.16 63.41 62.76 61.99 61.69 61.76 60.22
49.29 44.78 40.51 37.98 40.30 43.94 42.04 44.99 45.83 44.76 39.88 40.53 40.92 41.83 46.02 47.64 46.11 47.70 45.79 46.25 48.11 51.07 54.07 58.33 61.62 59.78 60.28 64.14 65.89 66.09 68.66 69.83 69.31 67.92 67.03 64.25 63.03 61.50 61.18 60.60 61.40 59.94 60.04 58.75
47.05 40.32 43.21 43.29 44.80 46.56 44.63 44.26 45.11 42.73 43.92 37.89 40.72 42.09 44.73 47.01 46.60 47.28 46.30 45.97 47.27 48.57 51.34 53.33 58.04 61.66 60.88 64.30 66.70 67.04 67.71 67.74 66.61 64.05 62.44 61.16 59.54 59.36 58.03 57.87 57.33 55.99 56.42 54.56
49.95 42.76 43.20 42.57 45.17 45.99 43.87 45.84 44.79 44.16 45.16 41.64 43.16 44.00 48.21 50.34 50.72 47.22 45.49 45.20 45.91 46.94 49.14 51.87 55.79 59.92 53.10 59.01 65.26 65.42 63.89 64.06 61.82 59.89 58.71 58.21 57.33 57.01 54.87 52.55 52.04 52.63 52.04 51.69
46.82 44.60 41.34 38.74 45.33 44.70 41.24 44.69 43.96 43.92 45.23 44.58 38.79 44.87 48.25 49.70 48.42 46.98 45.38 45.19 45.69 46.78 48.54 50.55 54.07 56.49 60.43 63.43 60.60 57.67 58.56 59.36 57.89 56.49 55.61 54.53 54.17 53.63 52.97 51.89 51.10 51.35 50.35 49.50
46.59 45.50 44.56 40.09 43.52 35.36 45.41 50.04 47.81 45.54 46.10 47.64 45.01 48.33 48.19 50.02 49.82 49.15 48.17 46.24 46.39 47.43 48.47 50.16 52.16 54.22 55.59 58.99 60.84 57.22 54.63 55.19 54.37 52.71 52.23 52.07 51.28 50.59 50.82 50.67 49.46 49.03 48.63 47.61
49.15 46.11 41.64 39.25 39.28 41.99 44.97 46.87 46.79 45.36 44.68 47.46 46.38 47.94 49.79 51.55 51.11 50.27 49.86 48.37 47.39 48.66 49.82 50.66 52.04 54.79 54.27 54.35 56.07 56.40 53.48 53.30 53.81 51.87 50.78 49.46 49.37 49.29 49.86 49.40 48.47 48.89 46.78 46.04
49.14 48.33 42.14 41.20 34.07 34.47 44.35 49.73 50.92 48.18 39.64 48.18 49.08 47.20 47.35 49.57 43.89 46.16 50.07 48.70 48.43 49.67 51.86 50.49 51.96 52.51 52.85 53.24 52.64 51.72 51.23 51.39 50.78 49.58 49.59 49.53 49.15 48.39 48.76 49.62 48.32 48.08 48.06 46.72
44.53 45.15 41.88 40.66 39.86 43.56 49.87 50.91 50.79 40.24 41.32 50.94 50.89 48.64 48.09 46.78 49.89 50.31 51.05 49.50 49.77 50.49 50.31 50.87 50.96 50.60 51.11 51.31 51.14 48.73 46.92 46.31 48.35 48.39 47.91 47.37 47.32 46.76 46.98 47.73 48.02 47.62 46.53 46.29
42.54 41.50 41.80 43.14 39.09 37.26 51.69 49.86 44.12 48.33 51.81 52.05 50.91 50.08 49.53 50.59 52.23 51.99 50.92 48.88 49.09 47.84 50.51 51.16 49.63 49.52 48.81 49.51 48.22 46.89 44.21 44.88 45.32 45.34 44.51 44.51 45.81 46.50 46.05 46.17 46.78 46.11 44.49 43.73
40.97 45.45 42.87 42.07 44.48 52.05 52.59 51.69 53.05 52.24 50.51 50.61 50.94 51.18 51.79 50.55 51.22 51.91 49.73 47.73 48.26 48.30 47.85 50.55 50.40 48.41 47.07 46.46 45.53 43.97 44.45 44.17 44.19 43.74 43.46 43.73 44.40 45.08 45.55 45.37 45.01 44.90 44.52 43.85
47.09 49.74 45.79 45.77 48.79 50.23 51.56 53.14 53.04 53.64 53.55 52.42 52.94 52.04 53.72 51.24 51.07 52.08 49.52 47.05 46.53 46.41 46.09 47.78 48.94 46.98 44.30 43.90 43.46 43.46 43.58 43.60 42.04 42.12 42.95 43.57 43.87 44.35 44.75 45.93 45.53 45.39 46.01 45.85
47.18 48.00 45.65 45.15 48.15 50.15 51.92 51.85 52.52 53.28 54.27 52.72 53.06 53.31 53.47 53.63 51.05 52.17 48.93 47.53 46.51 45.54 46.02 46.78 46.27 45.76 43.69 42.50 41.53 41.29 41.84 42.32 40.76 40.58 41.79 42.60 43.22 43.95 43.01 41.77 44.61 46.43 46.00 45.40
48.04 46.62 44.37 43.50 49.39 49.78 51.08 52.71 53.37 52.24 52.88 52.87 52.81 53.19 54.53 54.51 52.10 52.00 49.16 48.21 46.15 44.92 45.69 44.71 44.51 44.87 44.17 43.04 41.42 40.79 41.33 41.39 40.77 40.50 41.47 41.40 41.96 42.21 40.95 38.68 36.06 35.35 35.87 35.41
MSLP
1005.41 1005.59 1003.68 1003.99 1004.30 1004.11 1003.61 1002.53 1001.17 1000.34 999.65 999.45 998.49 997.72 997.07 996.45 996.35 996.05 996.08 996.35 996.64 996.81 997.25 997.86 998.49 998.91 999.26 999.94 1000.11 1000.01 1000.03 999.94 1001.03 1002.24 1003.04 1003.13 1002.87 1003.32 1003.57 1004.13 1004.64 1005.79 1006.26 1006.85
1004.85 1004.03 1003.77 1004.89 1004.65 1004.07 1003.25 1002.06 1000.77 1000.07 999.90 999.83 998.41 996.82 996.04 995.77 995.74 995.99 996.09 996.32 996.41 996.69 996.98 997.23 997.61 998.21 998.74 999.12 999.69 999.74 999.59 999.77 1000.56 1001.30 1002.15 1002.73 1002.51 1002.75 1003.03 1003.64 1004.51 1005.53 1006.09 1006.67
1004.80 1003.89 1004.72 1004.80 1004.28 1003.56 1002.80 1002.01 1001.23 1001.09 1000.35 999.07 996.65 995.95 995.77 996.17 996.05 995.76 996.19 996.68 996.83 996.85 996.85 997.08 997.21 997.48 998.06 998.45 999.02 999.43 999.24 999.79 1000.37 1000.65 1001.61 1002.50 1002.21 1002.33 1002.54 1002.99 1004.23 1005.25 1005.86 1006.68
1004.69 1004.13 1004.59 1004.48 1004.24 1003.74 1002.94 1002.37 1002.33 1001.35 1000.05 998.07 997.57 995.88 996.26 995.77 995.64 995.57 996.24 996.20 996.25 996.47 996.55 996.17 996.37 996.77 997.20 997.67 998.34 999.05 998.61 999.39 1000.14 1000.55 1000.73 1001.51 1001.71 1001.52 1001.77 1002.41 1003.79 1004.85 1005.52 1006.27
1004.01 1004.28 1004.55 1004.62 1004.19 1004.53 1003.60 1003.28 1002.53 1001.03 999.76 998.72 998.37 997.18 996.19 996.59 997.19 997.71 997.77 997.63 997.28 997.13 996.34 995.56 995.15 995.32 995.96 996.61 997.31 998.01 998.19 998.83 999.72 1000.11 1000.23 1000.90 1001.47 1001.33 1001.47 1002.05 1003.19 1004.48 1005.36 1005.83
1005.11 1004.21 1005.16 1004.98 1004.93 1004.00 1003.71 1003.04 1002.19 1000.71 999.49 999.57 998.91 998.04 997.81 999.05 999.85 999.85 999.79 999.37 998.06 996.67 995.31 994.28 993.75 993.94 994.33 994.93 996.00 996.61 997.41 998.10 998.96 999.69 1000.05 1000.53 1000.97 1000.67 1001.07 1001.62 1002.94 1003.90 1004.96 1005.47
1004.37 1003.50 1004.84 1005.61 1004.33 1003.23 1003.50 1003.27 1003.27 1001.78 1000.71 999.44 999.21 999.06 999.59 1000.36 1000.94 1001.21 1000.77 999.64 998.17 996.87 994.97 993.39 992.41 992.49 992.60 993.54 994.38 995.36 996.13 997.17 998.27 999.16 999.75 1000.07 1000.54 1000.64 1000.68 1001.36 1002.25 1003.13 1004.09 1004.84
1005.45 1004.23 1004.85 1005.06 1004.89 1004.47 1004.06 1004.86 1006.35 1005.84 1004.19 1002.43 1000.88 999.75 999.17 1000.63 1001.42 1001.74 1001.06 1000.18 998.91 996.64 994.27 992.86 992.72 991.27 991.21 992.22 993.22 994.01 994.91 996.03 997.49 998.60 999.31 999.76 1000.17 1000.61 1000.76 1001.45 1001.91 1002.74 1003.22 1004.19
1007.25 1005.29 1005.71 1005.16 1004.86 1004.95 1004.34 1005.29 1006.23 1007.33 1006.57 1004.86 1000.58 999.75 999.17 999.99 1001.13 1001.54 1000.59 999.95 998.25 996.34 994.73 993.28 990.75 990.68 990.70 991.42 992.19 993.01 993.71 995.19 996.90 997.93 998.87 999.45 999.82 999.97 1000.25 1000.97 1001.87 1002.43 1003.13 1004.37
1008.77 1007.88 1006.10 1005.07 1004.60 1004.68 1005.03 1006.07 1006.54 1007.56 1007.61 1005.41 1002.04 1001.00 1001.20 1001.78 1002.14 1002.17 1001.25 1000.01 998.81 997.18 995.62 995.80 993.56 990.51 990.73 990.93 991.81 992.50 992.94 994.87 996.57 997.77 998.46 999.13 999.26 999.84 1000.18 1000.81 1001.73 1002.34 1003.23 1004.72
1009.14 1008.84 1007.05 1005.44 1003.68 1003.65 1005.55 1005.65 1006.23 1007.89 1008.17 1007.55 1004.92 1002.60 1002.57 1002.98 1003.62 1003.55 1002.89 1000.89 1000.55 998.75 995.11 993.57 990.63 990.41 990.51 991.01 991.63 992.30 993.86 994.53 996.23 997.28 998.17 998.87 999.29 999.59 1000.14 1001.24 1002.02 1003.03 1004.50 1005.34
1009.74 1009.43 1007.64 1005.53 1003.59 1004.11 1004.54 1005.66 1006.42 1007.65 1007.75 1007.70 1006.31 1003.71 1002.74 1004.01 1004.67 1004.77 1003.87 1002.13 1001.05 999.28 995.79 991.30 990.02 990.46 990.71 990.65 991.06 992.33 993.69 994.56 996.06 997.20 998.02 999.11 999.55 1000.33 1000.89 1002.55 1003.31 1004.44 1005.51 1006.86
1010.67 1009.33 1008.29 1004.96 1004.46 1005.32 1005.16 1005.62 1006.62 1006.96 1007.15 1006.99 1006.85 1004.50 1004.10 1004.31 1005.02 1005.04 1004.61 1003.19 1001.46 999.62 996.11 992.60 990.39 990.09 990.39 990.33 990.85 992.43 994.08 994.48 995.98 996.95 997.63 999.27 1000.63 1001.56 1002.19 1004.24 1004.56 1005.65 1006.71 1008.26
1011.61 1010.37 1009.73 1008.45 1006.94 1006.34 1005.72 1005.58 1005.93 1006.95 1006.77 1006.98 1006.41 1005.45 1004.29 1004.92 1005.47 1005.10 1005.01 1004.13 1002.76 1000.75 998.39 995.71 992.34 991.45 991.48 991.20 991.01 992.95 994.22 994.91 995.93 997.43 997.51 1000.01 1001.37 1002.16 1003.75 1004.85 1005.75 1006.64 1007.75 1008.95
1011.31 1010.52 1009.22 1008.12 1007.11 1005.64 1005.33 1004.76 1005.13 1006.35 1006.90 1007.48 1006.86 1005.60 1005.10 1005.75 1005.88 1005.81 1005.92 1004.94 1003.40 1001.77 1000.11 998.15 995.65 993.61 994.52 993.67 993.65 994.44 995.45 995.88 997.33 998.57 999.19 1001.13 1002.71 1003.91 1004.97 1005.52 1006.32 1007.89 1009.15 1010.36
1009.87 1009.49 1009.04 1007.80 1006.31 1004.93 1004.01 1003.93 1005.20 1005.85 1006.36 1007.20 1007.04 1005.51 1005.65 1005.49 1005.82 1006.06 1006.04 1005.49 1004.50 1002.94 1001.52 1000.12 998.25 995.45 994.51 995.74 994.88 995.87 996.37 997.57 998.21 999.61 1000.75 1001.66 1003.29 1005.20 1005.36 1006.15 1007.51 1009.37 1010.45 1011.12
1009.91 1009.25 1008.81 1007.19 1005.35 1004.27 1003.74 1004.29 1005.00 1005.50 1005.71 1006.63 1007.09 1006.24 1005.45 1005.02 1005.67 1006.18 1006.40 1006.08 1005.42 1004.27 1002.83 1001.54 1000.22 999.22 997.78 997.05 997.63 998.11 998.60 998.99 999.69 1000.76 1002.27 1003.47 1004.86 1005.61 1006.83 1007.38 1008.37 1009.95 1010.99 1011.56
1009.53 1009.11 1008.11 1006.66 1005.13 1003.61 1003.41 1003.82 1004.49 1004.87 1005.69 1006.46 1006.70 1005.91 1005.45 1005.19 1005.46 1006.39 1006.80 1006.55 1005.99 1004.92 1003.85 1002.04 1001.36 1000.84 1000.20 999.50 999.59 999.76 1000.93 1001.39 1000.91 1001.89 1002.81 1003.87 1005.01 1006.34 1007.86 1007.88 1008.64 1010.33 1011.76 1012.27
1009.17 1009.25 1008.19 1006.72 1005.52 1004.99 1003.09 1004.14 1004.31 1004.59 1005.29 1006.32 1006.01 1005.92 1005.57 1004.79 1005.05 1005.42 1006.51 1006.85 1006.33 1005.77 1004.83 1003.48 1002.30 1001.63 1001.23 1000.93 1001.69 1001.38 1001.13 1002.75 1001.67 1003.09 1004.33 1005.15 1005.63 1007.41 1008.22 1008.98 1009.87 1011.26 1012.07 1013.05
1008.30 1008.82 1008.89 1007.46 1006.51 1005.19 1003.88 1004.21 1004.61 1004.32 1005.08 1005.95 1005.61 1006.07 1005.83 1005.19 1005.06 1005.38 1006.02 1007.01 1006.52 1005.78 1005.43 1005.00 1004.03 1002.50 1002.26 1002.66 1002.67 1002.48 1003.57 1003.40 1003.38 1004.64 1005.11 1006.08 1006.66 1007.23 1009.32 1010.30 1010.87 1011.91 1012.47 1013.31
1007.47 1007.14 1006.69 1005.85 1005.22 1004.15 1003.99 1004.72 1004.63 1003.61 1005.35 1005.01 1005.37 1006.07 1005.90 1005.91 1006.27 1006.32 1006.11 1006.76 1007.04 1006.37 1005.88 1005.45 1005.06 1004.60 1004.07 1003.15 1003.67 1004.77 1005.44 1005.58 1005.51 1005.57 1006.57 1007.55 1008.18 1009.05 1010.47 1010.84 1011.64 1012.37 1013.25 1014.26
1007.86 1007.17 1006.32 1005.79 1005.21 1004.79 1005.02 1005.05 1005.19 1005.44 1005.17 1004.96 1005.36 1005.93 1005.51 1005.71 1005.85 1006.14 1006.45 1006.13 1006.83 1007.22 1006.57 1005.87 1005.95 1005.78 1005.40 1004.95 1005.02 1006.29 1007.32 1008.03 1007.77 1007.82 1008.19 1009.08 1009.71 1010.24 1011.07 1011.55 1012.66 1013.38 1014.47 1015.49
1007.89 1007.48 1007.12 1007.36 1005.34 1005.23 1005.26 1005.13 1005.23 1005.13 1004.93 1004.93 1005.53 1005.67 1005.16 1005.33 1005.81 1006.35 1006.99 1007.37 1006.98 1007.14 1007.35 1006.77 1006.54 1006.76 1006.99 1006.84 1006.61 1006.72 1007.63 1008.04 1008.37 1008.84 1009.38 1010.05 1010.71 1011.53 1012.06 1012.64 1013.65 1014.48 1015.46 1016.10
1007.68 1007.23 1006.63 1006.35 1005.57 1004.98 1005.04 1004.93 1004.93 1004.79 1004.55 1005.03 1005.19 1005.33 1004.73 1004.88 1005.99 1006.27 1007.38 1008.02 1007.96 1007.79 1007.77 1007.52 1007.13 1007.32 1007.82 1008.06 1008.15 1008.40 1008.89 1009.31 1009.68 1010.21 1010.95 1011.41 1011.57 1012.32 1013.18 1014.04 1014.83 1015.36 1015.60 1015.90
1007.75 1007.29 1006.64 1006.04 1005.85 1005.08 1004.33 1004.59 1004.95 1004.97 1004.78 1004.84 1005.09 1004.77 1004.56 1004.69 1005.95 1006.60 1007.67 1008.28 1008.58 1008.54 1008.33 1008.29 1007.94 1007.97 1008.43 1008.82 1009.17 1009.85 1010.07 1010.30 1010.75 1011.46 1011.79 1012.21 1012.75 1013.41 1014.22 1015.42 1015.45 1015.51 1016.57 1016.53
1007.21 1006.13 1005.79 1005.07 1005.07 1004.85 1004.49 1004.99 1005.19 1005.30 1004.94 1004.94 1004.99 1004.63 1004.69 1004.76 1005.70 1006.76 1007.91 1008.53 1008.99 1009.04 1009.07 1009.09 1008.88 1008.83 1009.16 1009.63 1009.95 1010.26 1010.48 1010.88 1011.57 1012.22 1012.61 1013.14 1013.81 1014.76 1015.32 1016.24 1017.27 1018.45 1018.07 1018.28
Wind_Speed
3 8 12 13 11 15 16 18 21 20 15 18 20 25 25 24 23 24 23 21 20 20 19 20 19 18 18 16 15 17 18 17 14 13 13 12 12 13 13 12 13 16 14 13
12 16 5 9 12 14 16 20 19 18 18 21 24 26 18 18 10 15 14 14 15 15 15 18 18 18 17 15 15 17 16 15 15 14 13 12 12 13 13 12 11 13 12 11
10 13 8 10 12 15 14 16 17 23 24 26 21 18 11 16 17 5 7 11 11 13 14 15 19 18 16 16 15 18 16 16 17 18 13 12 10 9 13 13 13 13 14 14
11 4 10 11 12 11 16 17 19 23 23 17 19 17 15 11 13 8 10 11 16 20 22 19 15 19 17 17 16 19 16 16 18 19 17 20 13 11 12 13 12 12 14 14
11 13 10 10 9 12 17 15 22 26 21 14 15 11 11 17 22 25 25 26 24 24 24 23 19 19 22 20 17 17 17 17 18 19 18 15 14 12 11 12 15 13 12 13
14 9 4 9 11 15 11 17 22 20 15 6 6 12 8 13 18 21 25 28 26 27 25 24 21 21 20 21 22 17 19 17 19 20 20 20 20 14 12 14 14 13 12 11
19 7 3 4 17 16 7 14 7 6 3 12 23 13 6 12 16 19 23 25 26 26 26 23 17 19 22 23 24 20 19 19 19 21 20 19 18 14 15 15 13 15 13 12
10 3 3 15 12 13 12 8 1 4 10 20 22 5 3 7 17 22 25 22 26 27 26 18 24 15 21 23 24 24 21 19 19 20 20 17 17 13 13 14 13 13 13 12
11 8 20 10 11 8 7 5 7 3 8 10 6 10 4 17 25 29 31 25 25 28 29 26 13 12 16 20 22 21 22 19 17 20 18 18 16 16 15 17 12 12 12 12
7 10 13 14 18 5 9 8 6 1 6 10 12 14 13 24 27 31 32 29 28 30 21 16 32 9 14 18 16 18 15 17 19 16 17 16 17 16 13 14 14 13 12 17
15 5 13 21 6 4 7 8 6 3 3 4 8 12 8 23 28 26 25 27 26 27 29 29 12 8 12 15 20 16 16 17 16 15 17 16 13 12 13 11 11 14 16 18
8 9 12 21 14 3 4 12 9 6 6 7 7 8 17 23 25 23 21 25 26 25 22 23 12 12 13 16 19 18 16 15 18 12 17 15 14 12 12 10 14 17 16 16
13 5 10 14 9 4 16 15 12 14 10 13 3 8 22 21 26 19 21 23 24 23 27 26 3 14 17 15 14 16 14 16 17 14 17 14 13 14 18 15 17 18 19 18
5 11 9 9 17 18 17 18 16 8 7 10 7 20 24 23 24 21 21 21 21 21 23 25 20 11 15 10 10 10 14 16 14 15 13 16 15 16 16 16 16 18 19 20
3 9 16 15 22 19 17 15 14 10 13 4 12 20 23 18 19 11 16 20 21 22 23 21 22 13 14 5 11 10 10 12 15 13 14 15 15 14 16 16 18 16 16 15
8 11 14 16 22 14 18 10 6 13 9 4 15 18 17 16 19 13 16 20 20 22 22 19 17 11 18 18 5 9 7 9 14 16 18 16 18 15 16 17 20 17 17 18
13 11 13 14 19 18 10 6 8 12 9 1 9 18 19 21 19 10 15 18 18 19 20 18 15 12 1 11 10 13 10 11 14 16 17 17 17 17 16 19 20 19 18 18
11 13 12 12 15 8 8 8 6 12 7 6 12 16 21 16 15 5 10 14 17 18 18 18 14 11 10 11 12 15 11 5 15 15 15 16 18 17 15 18 19 18 16 17
8 9 11 9 10 15 7 5 13 16 8 12 12 15 20 19 16 9 15 12 13 15 14 14 14 10 10 11 11 13 10 4 15 17 16 16 19 17 16 17 19 18 18 17
6 9 7 12 5 4 5 10 15 19 3 12 16 14 18 21 13 12 17 14 15 15 11 11 12 14 9 9 10 16 8 2 11 12 15 15 17 20 16 16 18 16 16 18
8 9 12 11 14 10 13 10 17 15 11 18 15 12 14 12 8 11 14 10 11 11 13 12 11 9 9 11 14 12 11 10 10 14 13 15 16 18 16 17 16 17 17 17
13 9 10 8 11 6 17 19 17 13 14 15 10 10 11 12 11 12 14 16 15 12 12 11 8 8 9 9 10 11 14 11 12 14 16 17 16 14 14 18 16 17 16 14
8 5 8 7 13 22 16 14 18 17 17 15 6 8 14 10 9 10 10 12 15 13 11 10 7 7 8 9 9 12 11 12 14 15 16 16 17 15 16 17 16 13 13 10
13 14 14 15 13 15 20 14 8 11 10 8 5 4 13 11 6 10 8 8 10 12 11 10 8 7 9 10 12 12 12 13 14 16 16 15 17 18 15 11 10 10 9 10
14 16 19 21 21 21 13 8 12 12 13 7 9 10 13 11 7 8 6 7 8 8 9 9 7 8 9 11 13 13 14 15 16 15 15 16 15 15 12 10 4 9 10 8
15 20 12 13 17 16 12 12 14 14 14 9 7 11 11 11 9 7 5 5 6 7 7 7 9 9 9 11 13 15 17 17 16 15 12 11 11 10 11 13 15 24 24 26
Wind_Direction
289 285 265 356 319 302 294 285 291 287 302 297 302 297 293 288 282 278 277 277 275 276 265 252 249 255 246 232 236 245 236 207 187 187 202 202 202 192 199 193 181 172 187 184
246 232 7 326 296 292 288 290 297 316 328 310 295 289 296 291 316 304 293 297 290 285 294 272 256 244 246 227 221 250 225 212 190 194 200 200 204 194 200 185 175 171 181 171
301 293 11 300 300 300 299 301 331 317 313 294 294 305 330 326 280 282 272 265 279 275 283 273 273 244 239 224 224 244 215 218 207 206 188 204 214 193 198 178 168 178 178 178
279 33 294 300 295 311 303 340 319 307 307 307 319 305 300 305 308 1 318 323 326 329 313 290 252 250 230 230 218 239 219 212 209 201 193 198 207 194 188 181 175 174 178 177
285 320 318 298 341 323 301 317 297 298 295 318 313 305 315 346 356 351 339 336 326 313 296 283 272 238 239 224 227 210 230 201 212 203 202 193 205 194 183 182 168 169 176 171
273 279 275 332 304 279 311 286 316 292 251 282 267 324 315 7 350 337 333 322 313 305 298 282 258 251 237 232 220 206 216 204 203 207 201 193 200 202 177 184 157 174 173 175
298 162 134 261 315 318 303 360 323 321 325 303 343 318 84 19 355 341 328 320 313 305 291 282 277 258 234 228 218 205 200 207 203 206 202 197 200 209 185 172 169 170 173 172
348 216 31 358 323 316 306 31 2 296 316 310 300 280 34 29 1 339 327 317 320 317 299 293 279 260 243 214 218 201 195 205 197 204 202 198 194 197 193 187 171 178 171 166
321 283 340 274 317 306 344 353 339 251 262 265 254 308 167 348 345 341 335 326 319 317 303 307 261 256 229 208 212 200 196 195 195 202 198 193 186 199 193 175 190 178 163 130
339 300 292 334 289 186 294 18 307 74 302 297 327 317 0 343 346 343 333 326 324 319 332 310 283 210 204 202 189 207 173 185 197 196 193 189 185 193 189 169 178 161 141 130
312 292 294 289 268 280 160 331 308 269 238 287 305 322 22 12 352 343 322 318 327 323 321 312 206 216 188 195 192 159 182 190 188 185 185 184 182 179 156 162 169 125 115 113
2 303 301 289 298 89 328 322 340 313 284 236 261 283 360 8 360 327 322 326 329 324 305 286 133 170 191 205 182 161 176 193 182 181 177 182 165 115 107 99 111 111 115 110
316 267 316 320 104 40 325 327 317 299 297 280 326 291 323 2 344 338 343 333 328 334 330 332 132 158 188 192 157 155 183 183 180 174 171 160 126 121 102 111 108 109 111 111
267 280 250 277 298 304 294 303 289 325 326 311 308 308 332 360 343 334 345 336 331 337 343 338 326 104 250 116 135 166 176 196 171 161 122 129 128 111 115 118 116 117 120 120
241 268 299 305 290 290 281 277 300 334 320 350 305 313 358 351 332 343 341 335 340 344 349 343 333 8 24 104 128 147 178 175 133 120 125 115 108 116 127 122 110 110 115 110
288 292 295 302 288 274 281 288 3 306 347 309 331 332 349 355 341 354 350 340 347 342 343 340 348 6 27 311 152 167 171 147 117 117 114 113 119 132 113 107 109 109 111 106
287 289 298 306 311 307 294 42 327 339 334 282 325 327 335 352 345 349 356 339 345 342 340 339 357 1 125 49 66 74 58 115 110 114 115 118 122 119 127 118 117 118 112 110
268 300 295 290 305 324 37 88 323 318 65 21 319 350 332 6 335 51 13 343 345 341 341 341 351 26 27 45 66 86 77 80 112 105 107 111 110 111 119 121 112 113 117 110
210 276 297 288 337 302 271 35 350 338 358 346 347 0 336 349 342 20 10 359 341 336 346 338 347 19 40 51 73 85 82 200 123 117 120 121 114 122 118 116 119 119 114 112
243 212 249 301 300 281 37 19 348 316 320 301 16 5 338 347 346 324 345 5 347 344 11 353 358 360 27 52 87 67 76 62 94 108 105 118 112 110 116 121 118 118 114 112
304 284 248 264 278 287 34 358 338 324 348 338 6 356 339 353 350 323 328 352 10 352 355 10 4 33 27 36 71 87 77 58 74 91 98 100 104 108 115 110 107 107 106 106
297 294 292 313 301 298 359 332 331 327 312 329 6 339 337 348 347 350 339 340 1 356 358 19 21 38 50 55 67 79 97 100 96 98 102 102 105 107 105 104 103 101 106 109
274 232 318 294 305 322 313 326 326 306 298 302 15 337 327 346 1 359 349 345 339 0 353 8 35 76 76 84 89 86 84 92 97 96 97 99 100 102 102 102 103 105 109 128
284 274 273 278 270 297 318 309 318 337 327 26 313 353 309 356 21 6 3 347 338 355 3 6 9 86 95 96 95 95 98 100 97 102 107 108 103 101 101 99 107 120 133 129
293 295 285 280 278 276 291 343 344 334 323 352 331 325 349 354 50 6 11 352 355 351 2 16 38 94 104 105 103 102 105 107 100 99 102 100 99 101 88 58 89 94 61 108
263 266 271 281 304 306 298 323 327 319 312 323 349 329 355 346 53 28 32 9 6 5 12 34 47 86 99 110 109 106 104 99 105 100 93 93 98 95 93 89 80 61 67 66